Language selection

Weather shortcuts

Pacific - North Coast: Past 24 Hour Conditions

 

Bonilla Island

01:00 PM PDT 19 May 2024
Disclaimer

This table is a summary of hourly weather conditions for the past 24 hours.
Please note that these observations might not always be representative of weather conditions over their associated marine area.

Date / Time
(PDT)
Wind(knots) Conditions Visibility(km) Pressure(kPa) Air tempC) Relative humidity(%) Dew pointC)
19 May 2024
13:00 NW 9 N/A N/A 102.7 9 69 4
12:00 WNW 10 N/A N/A 102.7 9 70 4
11:00 NW 11 N/A N/A 102.7 9 70 4
10:00 NW 12 N/A N/A 102.6 9 72 4
9:00 NW 13 N/A N/A 102.6 9 72 4
8:00 NW 15 N/A N/A 102.6 9 72 4
7:00 NW 16 N/A N/A 102.5 8 75 4
6:00 NW 16 N/A N/A 102.5 8 75 4
5:00 NW 16 N/A N/A 102.4 9 74 4
4:00 NNW 17 N/A N/A 102.4 9 74 4
3:00 NNW 19 N/A N/A 102.4 9 76 5
2:00 NNW 18 N/A N/A 102.3 8 78 5
1:00 NW 18 N/A N/A 102.3 9 79 5
0:00 NNW 19 gusts 24 N/A N/A 102.3 9 80 5
18 May 2024
23:00 NNW 19 N/A N/A 102.3 9 78 5
22:00 NNW 20 N/A N/A 102.2 9 78 5
21:00 NNW 21 N/A N/A 102.2 9 77 5
20:00 NNW 21 N/A N/A 102.1 9 75 5
19:00 N 22 N/A N/A 102.1 10 71 5
18:00 NNW 19 N/A N/A 102.1 10 72 5
17:00 NNW 17 N/A N/A 102.1 9 71 4
16:00 NNW 16 N/A N/A 102.1 10 72 5
15:00 NNW 15 N/A N/A 102.1 9 75 5
14:00 NNW 14 N/A N/A 102.1 9 75 5
13:00 NW 12 N/A N/A 102.1 9 73 4

Zoom-in to make a selection

Map of Pacific - North Coast marine weather areas Middle Nomad - 46004 South Nomad - 46036 Dixon Entrance Central - 46145 South Moresby - 46147 Nanakwa Shoal - 46181 North Hecate Strait - 46183 North Nomad - 46184 South Hecate Strait - 46185 West Sea Otter - 46204 West Dixon Entrance - 46205 East Dellwood - 46207 West Moresby - 46208 Sartine Island Cape St.James Kindakun Rocks Langara Island Masset Municipal Airport Rose Spit Sandspit Airport Bella Bella Airport Bella Coola Airport Bonilla Island Cathedral Point Cumshewa Island Grey Islet Holland Rock Lucy Islands Lightstation Prince Rupert Airport
Legend:
buoy Buoy
land station Land Station

Pacific - North Coast Area

Another Region

Date modified: